Voltar ao catálogo

STARLINK-33964

AtivoComunicaçõesVLEO
NORAD 64118·PAYLOAD·🇺🇸 United States

Lançado May 23, 2025 de Vandenberg Space Force Base

Loading…

Próximas Passagens (próximas 24 horas)

TLE

AtualizadoSource: CelesTrak SupGP

Época: Sep 15, 2026, 03:17 UTC

1 64118C 25110Y   26258.13729167 -.00044206  00000+0 -14216-2 0  2589
2 64118  53.1588 225.4541 0001462  88.8067  19.9936 15.31724016    13

Acompanhe STARLINK-33964 em tempo real com AllMySat

Download on the App Store